SCP
0 -0 0 0 -0 0 0 0 0 0 0 0 0 0 0 0 0 0 0 0 0 2 2 1 1 1 1 1 1 0 0 0
-0 0 0 0 0 0 0 0 0 0 0 0 0 0 0 0 0 0 0 0 0 0 0 1 1 1 1 1 1 0 0 0
0 -0 0 0 0 0 -0 0 0 0 0 0 0 0 0 0 0 0 0 0 0 0 0 0 1 1 1 1 0 0 0 0
0 0 0 0 0 0 -0 0 0 0 0 0 0 0 0 0 0 0 0 0 0 0 0 0 0 0 0 0 0 0 0 0
0 0 0 0 0 0 0 0 0 0 0 0 0 0 0 0 0 0 0 0 0 0 0 0 0 0 0 0 0 0 0 0
0 0 0 0 0 0 0 0 0 0 0 0 0 0 0 0 0 0 0 0 0 0 0 0 0 0 0 0 0 0 0 0
0 0 0 0 0 0 0 0 0 0 0 0 0 0 0 0 0 0 0 0 0 0 0 0 0 0 0 0 0 0 0 0
0 0 0 0 0 0 0 0 0 0 0 0 0 0 0 0 0 0 0 0 0 0 0 0 0 0 0 0 0 0 0 0
-0 0 0 0 0 0 0 0 0 0 0 0 0 0 0 0 0 0 0 0 0 0 0 0 0 0 0 0 0 0 0 0
-0 0 0 0 0 0 0 0 0 0 0 0 0 0 0 0 0 0 0 0 0 0 0 0 0 0 0 0 0 0 0 0
0 0 0 0 0 0 0 0 0 0 0 0 0 0 0 0 0 0 0 0 0 0 0 0 0 0 0 0 0 0 0 0
0 0 0 0 -0 0 0 0 0 0 0 0 0 0 0 0 0 0 0 0 0 0 0 0 0 0 0 0 0 0 0 0
0 0 0 0 0 0 0 0 0 0 0 0 0 0 0 0 0 0 0 0 0 0 0 0 0 0 0 0 0 0 0 0
-0 0 0 0 0 0 0 0 0 0 0 0 0 0 0 0 0 0 0 0 0 0 0 0 0 0 0 0 0 0 0 0
0 0 0 0 0 0 0 0 0 0 0 0 0 0 0 0 0 0 0 0 0 0 0 0 0 0 0 0 0 0 0 0
0 0 0 0 0 0 0 0 0 0 0 0 0 0 0 0 0 0 0 0 0 0 0 0 0 0 0 0 0 0 0 0
0 0 0 0 0 -0 0 0 0 0 0 0 0 0 0 0 0 0 0 0 0 0 0 0 0 0 0 -0 0 0 0 0
0 0 0 -0 -0 -0 0 0 0 0 0 0 0 0 0 0 0 0 0 0 0 0 0 0 0 0 0 -0 0 0 0 0
-0 -0 0 -0 0 0 0 0 0 0 0 0 0 0 0 0 0 0 0 0 0 0 0 0 0 0 0 0 0 0 0 0
0 -0 -0 -0 -0 0 0 0 0 0 0 0 0 0 0 0 0 0 0 0 0 0 0 0 0 0 0 0 0 0 0 0
Wind_Speed_500mb
21 26 27 20 16 22 14 2 14 8 1 9 16 5 5 1 5 8 9 13 15 27 33 31 28 35 40 43 46 48 48 48
19 37 17 10 24 21 24 10 13 10 12 8 8 6 0 5 6 10 13 15 24 33 36 36 36 40 40 44 47 51 53 53
33 35 17 7 22 22 18 14 7 5 12 1 9 7 5 5 7 10 15 17 18 32 38 35 39 44 45 48 53 54 57 57
30 12 17 9 10 15 21 17 6 8 14 5 14 8 6 8 8 10 11 13 14 25 33 33 35 40 47 52 54 54 57 61
34 36 26 11 10 22 24 25 16 5 14 4 8 9 12 11 10 8 7 10 15 19 26 36 35 41 43 46 50 53 58 63
32 29 24 20 4 26 17 18 10 8 11 18 8 16 11 10 12 10 13 14 20 24 26 28 26 37 52 43 44 51 54 58
38 32 21 23 27 16 9 24 16 13 17 6 9 14 14 15 14 14 17 20 23 24 24 24 27 29 38 37 43 42 38 36
31 29 24 37 38 40 13 23 21 20 19 12 15 18 19 20 17 14 19 20 23 24 24 23 22 26 29 33 38 42 29 28
38 35 32 35 38 22 20 21 23 8 17 28 24 24 24 22 16 13 14 17 21 23 21 21 22 24 24 27 35 26 33 25
37 44 35 27 24 21 19 25 13 14 12 17 27 27 27 23 16 12 14 17 18 19 20 20 21 21 22 27 23 22 25 23
52 40 36 32 22 26 27 18 14 14 19 24 28 29 26 22 17 11 11 15 16 18 18 21 22 19 25 30 18 21 20 23
42 41 38 24 35 10 26 3 10 21 25 26 28 32 27 23 16 12 11 12 15 16 16 17 26 29 28 24 19 19 19 20
39 42 34 28 33 32 29 19 22 21 31 32 32 31 32 25 19 13 9 11 13 14 16 22 29 27 28 23 22 19 19 18
44 45 30 19 38 28 28 29 27 30 35 30 32 32 30 25 19 12 7 10 10 11 13 18 22 24 25 22 25 21 17 21
38 23 27 32 38 37 14 28 32 34 34 32 31 33 32 26 20 13 8 8 7 10 13 18 19 20 23 24 21 21 20 22
33 29 22 31 38 38 38 35 40 44 33 31 36 39 35 29 22 15 8 9 5 8 13 20 20 19 19 21 15 14 17 18
24 13 28 22 33 40 46 38 43 47 34 31 36 36 36 31 25 17 11 9 5 7 12 16 18 19 20 14 12 16 18 20
31 29 20 28 38 41 40 47 44 41 33 26 33 37 38 35 28 20 12 10 4 5 10 12 13 17 11 10 6 17 27 23
35 31 22 25 46 44 30 23 31 27 19 24 37 41 42 38 31 21 14 11 5 1 4 10 14 15 11 8 9 14 22 22
31 29 26 28 32 30 32 18 19 30 28 27 33 41 42 38 32 24 16 14 9 4 5 7 12 11 17 15 9 10 15 20
Wind_Direction_500mb
246 246 272 343 14 358 6 259 239 241 195 352 59 88 5 232 182 232 257 271 267 278 301 298 278 271 279 278 279 282 283 282
254 280 297 348 330 336 312 183 245 303 301 126 116 116 29 204 222 263 287 282 284 284 294 281 273 273 278 277 277 277 277 277
262 261 306 332 309 335 297 281 238 164 309 303 145 158 176 222 240 266 289 281 291 282 288 277 273 267 267 275 277 279 280 277
272 299 252 273 347 310 289 297 185 274 308 336 136 160 212 230 239 264 283 281 292 291 298 295 281 275 276 278 278 280 280 280
282 287 303 359 10 290 311 303 312 30 305 327 194 188 200 220 233 250 268 294 298 295 288 307 306 299 288 281 279 280 281 281
275 281 284 279 300 276 280 310 340 303 279 336 150 184 205 223 259 282 296 307 297 301 296 292 290 293 295 296 285 287 287 288
269 286 301 303 279 287 218 280 237 264 276 307 185 194 219 232 251 270 293 302 306 296 290 291 294 293 292 310 306 308 299 294
285 302 302 300 295 297 248 256 238 236 249 234 215 218 228 235 258 272 291 294 303 296 290 299 302 295 297 297 280 292 295 291
284 287 289 310 290 297 288 274 301 277 257 203 218 225 233 249 258 281 290 303 297 292 293 298 293 293 298 282 286 293 307 302
276 271 273 279 302 297 278 273 310 298 278 226 226 229 234 242 246 268 286 305 302 295 298 296 298 300 285 284 285 292 307 289
261 260 261 273 274 271 290 296 284 261 245 239 232 232 228 231 227 253 290 297 304 301 301 301 305 300 281 287 291 279 287 280
259 254 256 238 264 191 271 271 276 257 252 246 236 227 218 220 222 245 278 294 303 310 304 307 305 294 293 289 286 290 283 281
255 254 251 240 255 243 254 214 246 254 244 241 229 223 217 219 218 233 266 290 307 317 317 320 318 309 301 289 281 274 261 261
250 227 226 217 257 259 226 246 256 256 242 242 230 219 214 210 208 224 248 279 303 310 324 318 309 306 311 301 294 282 269 264
249 182 224 208 260 280 235 275 269 274 264 240 223 216 210 206 205 215 236 258 293 308 329 318 314 317 319 313 290 283 274 269
251 218 196 255 254 258 252 252 266 267 246 240 220 212 208 202 200 205 219 239 289 327 324 323 339 329 333 334 327 304 288 271
275 279 250 259 273 282 288 278 270 270 241 236 217 208 203 201 197 198 211 227 264 307 318 334 345 340 339 352 12 350 336 301
260 269 272 282 285 284 288 272 278 268 237 223 207 198 196 197 195 196 206 210 226 311 318 344 330 350 14 15 27 30 26 31
259 275 257 282 269 264 265 269 265 254 240 220 204 195 194 194 194 193 196 193 185 268 357 7 11 16 3 342 336 11 31 27
266 272 264 268 291 293 276 273 267 226 214 229 194 194 193 191 191 189 188 178 168 165 80 5 45 358 338 349 324 322 28 32
Wind_Speed_850mb
21 26 27 20 16 22 14 2 14 8 1 9 16 5 5 1 5 8 9 13 15 27 33 31 28 35 40 43 46 48 48 48
19 37 17 10 24 21 24 10 13 10 12 8 8 6 0 5 6 10 13 15 24 33 36 36 36 40 40 44 47 51 53 53
33 35 17 7 22 22 18 14 7 5 12 1 9 7 5 5 7 10 15 17 18 32 38 35 39 44 45 48 53 54 57 57
30 12 17 9 10 15 21 17 6 8 14 5 14 8 6 8 8 10 11 13 14 25 33 33 35 40 47 52 54 54 57 61
34 36 26 11 10 22 24 25 16 5 14 4 8 9 12 11 10 8 7 10 15 19 26 36 35 41 43 46 50 53 58 63
32 29 24 20 4 26 17 18 10 8 11 18 8 16 11 10 12 10 13 14 20 24 26 28 26 37 52 43 44 51 54 58
38 32 21 23 27 16 9 24 16 13 17 6 9 14 14 15 14 14 17 20 23 24 24 24 27 29 38 37 43 42 38 36
31 29 24 37 38 40 13 23 21 20 19 12 15 18 19 20 17 14 19 20 23 24 24 23 22 26 29 33 38 42 29 28
38 35 32 35 38 22 20 21 23 8 17 28 24 24 24 22 16 13 14 17 21 23 21 21 22 24 24 27 35 26 33 25
37 44 35 27 24 21 19 25 13 14 12 17 27 27 27 23 16 12 14 17 18 19 20 20 21 21 22 27 23 22 25 23
52 40 36 32 22 26 27 18 14 14 19 24 28 29 26 22 17 11 11 15 16 18 18 21 22 19 25 30 18 21 20 23
42 41 38 24 35 10 26 3 10 21 25 26 28 32 27 23 16 12 11 12 15 16 16 17 26 29 28 24 19 19 19 20
39 42 34 28 33 32 29 19 22 21 31 32 32 31 32 25 19 13 9 11 13 14 16 22 29 27 28 23 22 19 19 18
44 45 30 19 38 28 28 29 27 30 35 30 32 32 30 25 19 12 7 10 10 11 13 18 22 24 25 22 25 21 17 21
38 23 27 32 38 37 14 28 32 34 34 32 31 33 32 26 20 13 8 8 7 10 13 18 19 20 23 24 21 21 20 22
33 29 22 31 38 38 38 35 40 44 33 31 36 39 35 29 22 15 8 9 5 8 13 20 20 19 19 21 15 14 17 18
24 13 28 22 33 40 46 38 43 47 34 31 36 36 36 31 25 17 11 9 5 7 12 16 18 19 20 14 12 16 18 20
31 29 20 28 38 41 40 47 44 41 33 26 33 37 38 35 28 20 12 10 4 5 10 12 13 17 11 10 6 17 27 23
35 31 22 25 46 44 30 23 31 27 19 24 37 41 42 38 31 21 14 11 5 1 4 10 14 15 11 8 9 14 22 22
31 29 26 28 32 30 32 18 19 30 28 27 33 41 42 38 32 24 16 14 9 4 5 7 12 11 17 15 9 10 15 20
Wind_Direction_850mb
246 246 272 343 14 358 6 259 239 241 195 352 59 88 5 232 182 232 257 271 267 278 301 298 278 271 279 278 279 282 283 282
254 280 297 348 330 336 312 183 245 303 301 126 116 116 29 204 222 263 287 282 284 284 294 281 273 273 278 277 277 277 277 277
262 261 306 332 309 335 297 281 238 164 309 303 145 158 176 222 240 266 289 281 291 282 288 277 273 267 267 275 277 279 280 277
272 299 252 273 347 310 289 297 185 274 308 336 136 160 212 230 239 264 283 281 292 291 298 295 281 275 276 278 278 280 280 280
282 287 303 359 10 290 311 303 312 30 305 327 194 188 200 220 233 250 268 294 298 295 288 307 306 299 288 281 279 280 281 281
275 281 284 279 300 276 280 310 340 303 279 336 150 184 205 223 259 282 296 307 297 301 296 292 290 293 295 296 285 287 287 288
269 286 301 303 279 287 218 280 237 264 276 307 185 194 219 232 251 270 293 302 306 296 290 291 294 293 292 310 306 308 299 294
285 302 302 300 295 297 248 256 238 236 249 234 215 218 228 235 258 272 291 294 303 296 290 299 302 295 297 297 280 292 295 291
284 287 289 310 290 297 288 274 301 277 257 203 218 225 233 249 258 281 290 303 297 292 293 298 293 293 298 282 286 293 307 302
276 271 273 279 302 297 278 273 310 298 278 226 226 229 234 242 246 268 286 305 302 295 298 296 298 300 285 284 285 292 307 289
261 260 261 273 274 271 290 296 284 261 245 239 232 232 228 231 227 253 290 297 304 301 301 301 305 300 281 287 291 279 287 280
259 254 256 238 264 191 271 271 276 257 252 246 236 227 218 220 222 245 278 294 303 310 304 307 305 294 293 289 286 290 283 281
255 254 251 240 255 243 254 214 246 254 244 241 229 223 217 219 218 233 266 290 307 317 317 320 318 309 301 289 281 274 261 261
250 227 226 217 257 259 226 246 256 256 242 242 230 219 214 210 208 224 248 279 303 310 324 318 309 306 311 301 294 282 269 264
249 182 224 208 260 280 235 275 269 274 264 240 223 216 210 206 205 215 236 258 293 308 329 318 314 317 319 313 290 283 274 269
251 218 196 255 254 258 252 252 266 267 246 240 220 212 208 202 200 205 219 239 289 327 324 323 339 329 333 334 327 304 288 271
275 279 250 259 273 282 288 278 270 270 241 236 217 208 203 201 197 198 211 227 264 307 318 334 345 340 339 352 12 350 336 301
260 269 272 282 285 284 288 272 278 268 237 223 207 198 196 197 195 196 206 210 226 311 318 344 330 350 14 15 27 30 26 31
259 275 257 282 269 264 265 269 265 254 240 220 204 195 194 194 194 193 196 193 185 268 357 7 11 16 3 342 336 11 31 27
266 272 264 268 291 293 276 273 267 226 214 229 194 194 193 191 191 189 188 178 168 165 80 5 45 358 338 349 324 322 28 32